| time (UTC) | temp F | wind direction | speed knots | gust knots | rain 1hr in | rain 24hr in | rain mn in | humidity % | barometer mb |
| 20260510171213 | 86 | 267 | 3.5 | 9.6 | 0.00 | 0.43 | 0.01 | 67 | 1015.5 |
| 20260510170730 | 86 | 285 | 3.5 | 11.3 | 0.00 | 0.43 | 0.01 | 67 | 1015.6 |
| 20260510170221 | 86 | 276 | 5.2 | 7.8 | 0.00 | 0.43 | 0.01 | 68 | 1015.7 |
| 20260510165725 | 86 | 289 | 0.9 | 7.0 | 0.00 | 0.43 | 0.01 | 69 | 1015.7 |
| 20260510165220 | 85 | 282 | 3.5 | 7.0 | 0.00 | 0.43 | 0.01 | 69 | 1015.8 |
| 20260510164716 | 85 | 284 | 3.5 | 6.1 | 0.00 | 0.43 | 0.01 | 71 | 1015.9 |
| 20260510164216 | 85 | 292 | 0.9 | 5.2 | 0.00 | 0.43 | 0.01 | 73 | 1015.9 |
| 20260510163744 | 84 | 307 | 0.9 | 6.1 | 0.00 | 0.43 | 0.01 | 71 | 1016.1 |
| 20260510163217 | 84 | 258 | 4.3 | 7.8 | 0.00 | 0.43 | 0.01 | 72 | 1016.3 |
| 20260510162728 | 84 | 267 | 5.2 | 7.8 | 0.00 | 0.43 | 0.01 | 72 | 1016.3 |
| 20260510162225 | 84 | 286 | 5.2 | 7.8 | 0.00 | 0.43 | 0.01 | 72 | 1016.4 |
| 20260510161714 | 84 | 277 | 3.5 | 7.8 | 0.00 | 0.43 | 0.01 | 73 | 1016.4 |
| 20260510160303 | 83 | 310 | 2.6 | 3.5 | 0.00 | 0.43 | 0.01 | 77 | 1016.5 |
| 20260510155726 | 83 | 355 | 0.9 | 3.5 | 0.00 | 0.43 | 0.01 | 78 | 1016.6 |
| 20260510155211 | 83 | 272 | 2.6 | 3.5 | 0.00 | 0.43 | 0.01 | 78 | 1016.6 |
| 20260510154718 | 83 | 309 | 0.0 | 1.7 | 0.00 | 0.43 | 0.01 | 80 | 1016.6 |
| 20260510154222 | 82 | 269 | 1.7 | 2.6 | 0.00 | 0.43 | 0.01 | 80 | 1016.6 |
| 20260510153727 | 82 | 307 | 1.7 | 3.5 | 0.00 | 0.43 | 0.01 | 80 | 1016.7 |
| 20260510153230 | 82 | 274 | 1.7 | 4.3 | 0.00 | 0.43 | 0.01 | 80 | 1016.7 |
| 20260510152714 | 82 | 274 | 3.5 | 5.2 | 0.00 | 0.43 | 0.01 | 81 | 1016.7 |
| 20260510152237 | 82 | 283 | 2.6 | 6.1 | 0.00 | 0.43 | 0.01 | 80 | 1016.8 |
| 20260510151721 | 81 | 280 | 4.3 | 6.1 | 0.00 | 0.43 | 0.01 | 81 | 1016.7 |
| 20260510151225 | 82 | 250 | 3.5 | 6.1 | 0.00 | 0.43 | 0.01 | 81 | 1016.7 |
| 20260510150728 | 82 | 280 | 3.5 | 6.1 | 0.00 | 0.43 | 0.01 | 80 | 1016.7 |
| 20260510150213 | 82 | 44 | 1.7 | 4.3 | 0.00 | 0.43 | 0.01 | 80 | 1016.6 |
| 20260510145716 | 82 | 222 | 0.9 | 2.6 | 0.00 | 0.43 | 0.01 | 81 | 1016.6 |
| 20260510145225 | 82 | 201 | 0.9 | 3.5 | 0.00 | 0.43 | 0.01 | 81 | 1016.6 |
| 20260510144749 | 82 | 304 | 0.9 | 7.0 | 0.00 | 0.43 | 0.01 | 81 | 1016.5 |
| 20260510144212 | 82 | 272 | 1.7 | 3.5 | 0.00 | 0.43 | 0.01 | 81 | 1016.5 |
| 20260510143717 | 82 | 238 | 1.7 | 3.5 | 0.00 | 0.43 | 0.01 | 80 | 1016.5 |
| 20260510143221 | 82 | 239 | 1.7 | 5.2 | 0.00 | 0.43 | 0.01 | 81 | 1016.4 |
| 20260510142726 | 82 | 319 | 2.6 | 5.2 | 0.00 | 0.43 | 0.01 | 81 | 1016.4 |
| 20260510142229 | 81 | 102 | 1.7 | 4.3 | 0.00 | 0.43 | 0.01 | 82 | 1016.4 |
| 20260510141711 | 81 | 272 | 0.9 | 2.6 | 0.00 | 0.43 | 0.01 | 83 | 1016.4 |
| 20260510140725 | 80 | 196 | 0.9 | 4.3 | 0.00 | 0.43 | 0.01 | 84 | 1016.3 |
| 20260510140225 | 80 | 269 | 1.7 | 5.2 | 0.00 | 0.43 | 0.01 | 85 | 1016.3 |
| 20260510135726 | 80 | 161 | 0.9 | 5.2 | 0.00 | 0.43 | 0.01 | 87 | 1016.2 |
| 20260510135218 | 79 | 277 | 1.7 | 5.2 | 0.00 | 0.43 | 0.01 | 88 | 1016.1 |
| 20260510134714 | 79 | 269 | 0.9 | 4.3 | 0.00 | 0.43 | 0.01 | 89 | 1016.1 |
| 20260510134251 | 79 | 262 | 0.0 | 4.3 | 0.00 | 0.43 | 0.01 | 90 | 1016.1 |
| 20260510133731 | 78 | 255 | 0.9 | 2.6 | 0.00 | 0.43 | 0.01 | 92 | 1016.1 |
| 20260510133223 | 78 | 274 | 0.0 | 2.6 | 0.00 | 0.43 | 0.01 | 93 | 1015.9 |
| 20260510132223 | 77 | 135 | 0.0 | 0.9 | 0.00 | 0.43 | 0.01 | 94 | 1016.0 |
| 20260510131732 | 76 | 257 | 0.0 | 1.7 | 0.00 | 0.43 | 0.01 | 94 | 1016.0 |
| 20260510131228 | 76 | 250 | 0.9 | 1.7 | 0.00 | 0.43 | 0.01 | 94 | 1016.1 |
| 20260510130722 | 76 | 51 | 0.0 | 0.9 | 0.00 | 0.43 | 0.01 | 95 | 1016.0 |
| 20260510130214 | 76 | 155 | 0.0 | 1.7 | 0.00 | 0.43 | 0.01 | 95 | 1016.0 |
| 20260510125749 | 75 | 276 | 0.0 | 2.6 | 0.00 | 0.43 | 0.01 | 95 | 1016.1 |
| 20260510125223 | 75 | 260 | 1.7 | 2.6 | 0.00 | 0.43 | 0.01 | 95 | 1016.0 |
| 20260510124716 | 75 | 241 | 0.0 | 0.9 | 0.00 | 0.43 | 0.01 | 96 | 1016.0 |
| 20260510123737 | 75 | 241 | 0.0 | 0.9 | 0.00 | 0.43 | 0.01 | 96 | 1015.9 |
| 20260510122726 | 75 | 216 | 0.0 | 0.9 | 0.00 | 0.43 | 0.01 | 96 | 1015.7 |
| 20260510121306 | 74 | 216 | 0.0 | 0.9 | 0.00 | 0.43 | 0.01 | 96 | 1015.4 |
| 20260510120714 | 74 | 216 | 0.0 | 0.0 | 0.00 | 0.43 | 0.01 | 96 | 1015.4 |
| 20260510120241 | 74 | 215 | 0.0 | 0.0 | 0.00 | 0.43 | 0.01 | 96 | 1015.3 |
| 20260510115737 | 73 | 215 | 0.0 | 0.0 | 0.00 | 0.43 | 0.01 | 96 | 1015.2 |
| 20260510115215 | 73 | 215 | 0.0 | 0.0 | 0.00 | 0.43 | 0.01 | 96 | 1015.1 |
| 20260510114743 | 73 | 215 | 0.0 | 0.0 | 0.00 | 0.43 | 0.01 | 96 | 1015.1 |
| 20260510114215 | 73 | 215 | 0.0 | 0.0 | 0.00 | 0.43 | 0.01 | 96 | 1014.9 |
| 20260510113723 | 73 | 215 | 0.0 | 0.0 | 0.00 | 0.43 | 0.01 | 96 | 1015.0 |
| 20260510113229 | 73 | 215 | 0.0 | 0.0 | 0.00 | 0.43 | 0.01 | 96 | 1014.9 |
| 20260510112713 | 72 | 215 | 0.0 | 0.0 | 0.01 | 0.43 | 0.01 | 96 | 1014.8 |
| 20260510112250 | 72 | 215 | 0.0 | 0.0 | 0.01 | 0.43 | 0.01 | 96 | 1014.8 |
| 20260510111712 | 72 | 215 | 0.0 | 0.0 | 0.01 | 0.43 | 0.01 | 96 | 1014.7 |
| 20260510111220 | 72 | 215 | 0.0 | 0.0 | 0.01 | 0.43 | 0.01 | 96 | 1014.6 |
| 20260510110724 | 72 | 215 | 0.0 | 0.0 | 0.01 | 0.43 | 0.01 | 96 | 1014.5 |
| 20260510110221 | 72 | 215 | 0.0 | 0.0 | 0.01 | 0.43 | 0.01 | 96 | 1014.5 |
| 20260510105726 | 72 | 215 | 0.0 | 0.0 | 0.01 | 0.43 | 0.01 | 96 | 1014.4 |
| 20260510105234 | 72 | 215 | 0.0 | 0.0 | 0.01 | 0.43 | 0.01 | 96 | 1014.4 |
| 20260510104715 | 72 | 215 | 0.0 | 0.0 | 0.01 | 0.43 | 0.01 | 96 | 1014.3 |
| 20260510104240 | 72 | 215 | 0.0 | 0.0 | 0.01 | 0.43 | 0.01 | 96 | 1014.3 |
| 20260510103723 | 72 | 215 | 0.0 | 0.0 | 0.01 | 0.43 | 0.01 | 96 | 1014.2 |
| 20260510103230 | 72 | 215 | 0.0 | 0.0 | 0.01 | 0.43 | 0.01 | 96 | 1014.2 |
| 20260510102714 | 72 | 215 | 0.0 | 0.0 | 0.00 | 0.42 | 0.00 | 96 | 1014.1 |
| 20260510102218 | 72 | 215 | 0.0 | 0.0 | 0.00 | 0.42 | 0.00 | 96 | 1014.1 |
| 20260510101723 | 72 | 215 | 0.0 | 0.0 | 0.00 | 0.42 | 0.00 | 96 | 1014.0 |
| 20260510101248 | 72 | 215 | 0.0 | 0.0 | 0.00 | 0.42 | 0.00 | 96 | 1013.9 |
| 20260510100713 | 72 | 215 | 0.0 | 0.0 | 0.00 | 0.42 | 0.00 | 96 | 1013.9 |
| 20260510100218 | 72 | 215 | 0.0 | 0.0 | 0.00 | 0.42 | 0.00 | 96 | 1013.7 |
| 20260510095731 | 72 | 215 | 0.0 | 0.0 | 0.00 | 0.42 | 0.00 | 96 | 1013.7 |
| 20260510095216 | 72 | 215 | 0.0 | 0.0 | 0.00 | 0.42 | 0.00 | 96 | 1013.7 |
| 20260510094719 | 72 | 215 | 0.0 | 0.0 | 0.00 | 0.42 | 0.00 | 96 | 1013.7 |
| 20260510094225 | 72 | 215 | 0.0 | 0.0 | 0.00 | 0.42 | 0.00 | 96 | 1013.7 |
| 20260510093730 | 72 | 215 | 0.0 | 0.0 | 0.00 | 0.42 | 0.00 | 96 | 1013.5 |
| 20260510093215 | 72 | 215 | 0.0 | 0.0 | 0.00 | 0.42 | 0.00 | 96 | 1013.4 |
| 20260510092724 | 72 | 215 | 0.0 | 0.0 | 0.00 | 0.42 | 0.00 | 96 | 1013.5 |
| 20260510092240 | 72 | 215 | 0.0 | 0.0 | 0.00 | 0.42 | 0.00 | 96 | 1013.5 |
| 20260510091743 | 73 | 215 | 0.0 | 0.0 | 0.00 | 0.42 | 0.00 | 96 | 1013.6 |
| 20260510091227 | 72 | 215 | 0.0 | 0.0 | 0.00 | 0.42 | 0.00 | 96 | 1013.5 |
| 20260510090731 | 72 | 215 | 0.0 | 0.0 | 0.00 | 0.42 | 0.00 | 96 | 1013.4 |
| 20260510090217 | 72 | 215 | 0.0 | 0.0 | 0.00 | 0.42 | 0.00 | 96 | 1013.3 |
| 20260510085722 | 72 | 219 | 0.0 | 0.9 | 0.00 | 0.42 | 0.00 | 96 | 1013.2 |
| 20260510085227 | 72 | 219 | 0.0 | 1.7 | 0.00 | 0.42 | 0.00 | 96 | 1013.1 |
| 20260510084722 | 72 | 186 | 0.0 | 2.6 | 0.00 | 0.42 | 0.00 | 96 | 1013.0 |
| 20260510084227 | 72 | 134 | 0.9 | 2.6 | 0.00 | 0.42 | 0.00 | 96 | 1013.0 |
| 20260510083728 | 72 | 152 | 0.9 | 2.6 | 0.00 | 0.42 | 0.00 | 96 | 1013.1 |
| 20260510083214 | 72 | 182 | 0.9 | 2.6 | 0.00 | 0.42 | 0.00 | 96 | 1013.0 |
| 20260510082719 | 72 | 188 | 0.9 | 1.7 | 0.00 | 0.42 | 0.00 | 96 | 1013.0 |
| 20260510082227 | 72 | 153 | 0.0 | 1.7 | 0.00 | 0.42 | 0.00 | 96 | 1013.0 |
| 20260510081752 | 72 | 203 | 0.0 | 1.7 | 0.00 | 0.42 | 0.00 | 96 | 1013.0 |
| 20260510081216 | 72 | 210 | 0.0 | 0.9 | 0.00 | 0.42 | 0.00 | 96 | 1012.9 |
| 20260510080724 | 72 | 199 | 0.0 | 3.5 | 0.00 | 0.42 | 0.00 | 96 | 1012.8 |
| 20260510080229 | 72 | 179 | 0.9 | 3.5 | 0.00 | 0.42 | 0.00 | 96 | 1012.9 |
| 20260510075733 | 72 | 117 | 0.0 | 0.9 | 0.00 | 0.42 | 0.00 | 96 | 1012.8 |
| 20260510075216 | 72 | 194 | 0.0 | 1.7 | 0.00 | 0.42 | 0.00 | 96 | 1012.7 |
| 20260510074721 | 72 | 154 | 0.0 | 1.7 | 0.00 | 0.42 | 0.00 | 96 | 1012.7 |
| 20260510074223 | 72 | 139 | 0.0 | 0.9 | 0.00 | 0.42 | 0.00 | 96 | 1012.7 |
| 20260510073727 | 72 | 191 | 0.0 | 1.7 | 0.00 | 0.42 | 0.00 | 96 | 1012.8 |
| 20260510073231 | 72 | 187 | 0.9 | 1.7 | 0.00 | 0.42 | 0.00 | 96 | 1013.0 |
| 20260510072733 | 72 | 161 | 0.9 | 1.7 | 0.00 | 0.42 | 0.00 | 96 | 1013.1 |
| 20260510072216 | 72 | 201 | 0.0 | 1.7 | 0.00 | 0.42 | 0.00 | 96 | 1013.2 |
| 20260510071721 | 72 | 177 | 0.9 | 1.7 | 0.00 | 0.42 | 0.00 | 96 | 1013.2 |
| 20260510071229 | 72 | 162 | 0.9 | 1.7 | 0.00 | 0.42 | 0.00 | 96 | 1013.2 |
| 20260510070714 | 72 | 152 | 0.9 | 1.7 | 0.00 | 0.42 | 0.00 | 96 | 1013.2 |
| 20260510070220 | 72 | 164 | 0.9 | 1.7 | 0.00 | 0.42 | 0.00 | 96 | 1013.3 |
| 20260510065724 | 72 | 150 | 0.0 | 0.9 | 0.00 | 0.42 | 0.00 | 96 | 1013.3 |
| 20260510065229 | 72 | 150 | 0.0 | 1.7 | 0.00 | 0.42 | 0.00 | 96 | 1013.3 |
| 20260510064734 | 72 | 196 | 0.0 | 1.7 | 0.00 | 0.42 | 0.00 | 96 | 1013.4 |
| 20260510064217 | 72 | 256 | 0.0 | 1.7 | 0.00 | 0.42 | 0.00 | 96 | 1013.4 |
| 20260510063722 | 72 | 209 | 0.0 | 1.7 | 0.00 | 0.42 | 0.00 | 96 | 1013.5 |
| 20260510063228 | 72 | 192 | 0.9 | 2.6 | 0.00 | 0.42 | 0.00 | 96 | 1013.6 |
| 20260510062713 | 72 | 175 | 0.0 | 0.9 | 0.00 | 0.42 | 0.00 | 96 | 1013.7 |
| 20260510062217 | 72 | 193 | 0.0 | 0.9 | 0.00 | 0.42 | 0.00 | 96 | 1013.8 |
| 20260510061712 | 72 | 199 | 0.0 | 0.0 | 0.00 | 0.42 | 0.00 | 96 | 1013.8 |
| 20260510061221 | 72 | 199 | 0.0 | 0.0 | 0.00 | 0.42 | 0.00 | 96 | 1013.9 |
| 20260510060725 | 73 | 202 | 0.0 | 0.0 | 0.00 | 0.42 | 0.00 | 96 | 1014.0 |
| 20260510060231 | 73 | 202 | 0.0 | 0.0 | 0.00 | 0.42 | 0.00 | 96 | 1014.0 |
| 20260510055715 | 73 | 202 | 0.0 | 0.0 | 0.00 | 0.42 | 0.00 | 96 | 1014.1 |
| 20260510055220 | 73 | 202 | 0.0 | 0.9 | 0.00 | 0.42 | 0.00 | 96 | 1014.1 |
| 20260510054745 | 72 | 202 | 0.0 | 0.9 | 0.00 | 0.42 | 0.00 | 95 | 1014.2 |
| 20260510054249 | 72 | 205 | 0.0 | 0.9 | 0.00 | 0.42 | 0.00 | 95 | 1014.3 |
| 20260510053713 | 72 | 205 | 0.0 | 0.9 | 0.00 | 0.42 | 0.00 | 95 | 1014.3 |
| 20260510053219 | 73 | 213 | 0.0 | 1.7 | 0.00 | 0.42 | 0.00 | 96 | 1014.4 |
| 20260510052724 | 73 | 215 | 0.9 | 1.7 | 0.00 | 0.42 | 0.00 | 96 | 1014.4 |
| 20260510052230 | 72 | 202 | 0.0 | 0.9 | 0.00 | 0.42 | 0.00 | 95 | 1014.5 |
| 20260510051716 | 72 | 130 | 0.0 | 0.0 | 0.00 | 0.42 | 0.00 | 95 | 1014.5 |
| 20260510051221 | 72 | 191 | 0.0 | 0.0 | 0.00 | 0.42 | 0.00 | 95 | 1014.6 |
| 20260510050731 | 72 | 191 | 0.0 | 0.0 | 0.00 | 0.42 | 0.00 | 95 | 1014.7 |
| 20260510050217 | 72 | 191 | 0.0 | 0.0 | 0.00 | 0.42 | 0.00 | 95 | 1014.7 |
| 20260510045723 | 72 | 191 | 0.0 | 0.0 | 0.00 | 0.42 | 0.00 | 95 | 1014.7 |
| 20260510045229 | 72 | 191 | 0.0 | 0.0 | 0.00 | 0.42 | 0.00 | 95 | 1014.7 |
| 20260510044715 | 72 | 191 | 0.0 | 0.0 | 0.00 | 0.42 | 0.00 | 95 | 1014.7 |
| 20260510044221 | 72 | 191 | 0.0 | 0.0 | 0.00 | 0.42 | 0.00 | 95 | 1014.9 |
| 20260510043720 | 72 | 191 | 0.0 | 0.0 | 0.00 | 0.42 | 0.00 | 95 | 1014.9 |
| 20260510043226 | 72 | 154 | 0.0 | 0.0 | 0.00 | 0.42 | 0.00 | 95 | 1014.8 |
| 20260510042744 | 72 | 154 | 0.0 | 0.0 | 0.00 | 0.42 | 0.00 | 95 | 1014.9 |
| 20260510042248 | 72 | 154 | 0.0 | 0.0 | 0.00 | 0.42 | 0.00 | 95 | 1014.8 |
| 20260510041731 | 73 | 154 | 0.0 | 0.0 | 0.00 | 0.42 | 0.00 | 95 | 1014.9 |
| 20260510041236 | 72 | 154 | 0.0 | 0.0 | 0.00 | 0.42 | 0.00 | 95 | 1014.9 |
| 20260510040720 | 73 | 154 | 0.0 | 0.0 | 0.00 | 0.42 | 0.00 | 95 | 1015.0 |
| 20260510040229 | 73 | 155 | 0.0 | 0.9 | 0.00 | 0.42 | 0.00 | 95 | 1014.9 |
| 20260510035713 | 73 | 155 | 0.0 | 0.9 | 0.00 | 0.42 | 0.42 | 95 | 1015.0 |
| 20260510035218 | 73 | 105 | 0.0 | 0.9 | 0.00 | 0.42 | 0.42 | 95 | 1015.0 |
| 20260510034722 | 73 | 190 | 0.0 | 0.0 | 0.00 | 0.42 | 0.42 | 95 | 1015.0 |
| 20260510034228 | 73 | 190 | 0.0 | 0.0 | 0.00 | 0.42 | 0.42 | 95 | 1015.0 |
| 20260510033745 | 73 | 189 | 0.0 | 0.0 | 0.00 | 0.42 | 0.42 | 95 | 1015.0 |
| 20260510033229 | 73 | 190 | 0.0 | 0.0 | 0.00 | 0.42 | 0.42 | 95 | 1015.0 |
| 20260510032717 | 73 | 190 | 0.0 | 0.0 | 0.00 | 0.42 | 0.42 | 95 | 1015.0 |
| 20260510032242 | 73 | 190 | 0.0 | 0.0 | 0.00 | 0.42 | 0.42 | 95 | 1014.9 |
| 20260510031746 | 73 | 190 | 0.0 | 0.0 | 0.00 | 0.42 | 0.42 | 95 | 1014.9 |
| 20260510031230 | 73 | 190 | 0.0 | 0.0 | 0.00 | 0.42 | 0.42 | 95 | 1015.0 |
| 20260510030713 | 73 | 190 | 0.0 | 0.0 | 0.00 | 0.42 | 0.42 | 95 | 1015.0 |
| 20260510030230 | 73 | 190 | 0.0 | 0.9 | 0.00 | 0.42 | 0.42 | 94 | 1015.1 |
| 20260510025713 | 73 | 190 | 0.0 | 0.9 | 0.00 | 0.42 | 0.42 | 94 | 1014.9 |
| 20260510025238 | 73 | 191 | 0.0 | 0.9 | 0.00 | 0.42 | 0.42 | 94 | 1014.8 |
| 20260510024722 | 73 | 192 | 0.0 | 0.9 | 0.00 | 0.42 | 0.42 | 94 | 1014.8 |
| 20260510024226 | 73 | 193 | 0.0 | 0.9 | 0.00 | 0.42 | 0.42 | 94 | 1014.9 |
| 20260510023730 | 73 | 193 | 0.0 | 0.9 | 0.00 | 0.42 | 0.42 | 94 | 1014.8 |
| 20260510023216 | 73 | 192 | 0.0 | 0.9 | 0.00 | 0.42 | 0.42 | 94 | 1014.7 |
| 20260510022720 | 73 | 189 | 0.0 | 0.9 | 0.00 | 0.42 | 0.42 | 94 | 1014.5 |
| 20260510022224 | 73 | 188 | 0.0 | 0.9 | 0.00 | 0.42 | 0.42 | 94 | 1014.4 |
| 20260510021713 | 73 | 189 | 0.0 | 0.9 | 0.00 | 0.42 | 0.42 | 94 | 1014.4 |
| 20260510021217 | 73 | 189 | 0.0 | 0.9 | 0.00 | 0.42 | 0.42 | 94 | 1014.4 |
| 20260510020715 | 73 | 189 | 0.0 | 0.9 | 0.00 | 0.42 | 0.42 | 94 | 1014.4 |
| 20260510020220 | 74 | 198 | 0.0 | 1.7 | 0.00 | 0.42 | 0.42 | 93 | 1014.4 |
| 20260510015725 | 74 | 163 | 0.9 | 1.7 | 0.00 | 0.42 | 0.42 | 93 | 1014.3 |
| 20260510015229 | 74 | 158 | 0.0 | 1.7 | 0.00 | 0.42 | 0.42 | 93 | 1014.2 |
| 20260510014724 | 74 | 151 | 0.9 | 1.7 | 0.00 | 0.42 | 0.42 | 93 | 1014.2 |
| 20260510014229 | 74 | 193 | 0.0 | 1.7 | 0.00 | 0.42 | 0.42 | 93 | 1014.3 |
| 20260510013726 | 74 | 163 | 0.0 | 1.7 | 0.00 | 0.42 | 0.42 | 92 | 1014.2 |
| 20260510013230 | 74 | 93 | 0.9 | 4.3 | 0.00 | 0.42 | 0.42 | 92 | 1013.9 |
| 20260510012734 | 75 | 178 | 0.9 | 4.3 | 0.00 | 0.42 | 0.42 | 92 | 1013.9 |
| 20260510012218 | 75 | 94 | 0.0 | 2.6 | 0.00 | 0.42 | 0.42 | 92 | 1013.8 |
| 20260510011714 | 75 | 130 | 0.9 | 7.8 | 0.00 | 0.42 | 0.42 | 91 | 1013.8 |
| 20260510011239 | 76 | 154 | 2.6 | 7.8 | 0.00 | 0.42 | 0.42 | 91 | 1013.8 |
| 20260510010727 | 76 | 79 | 6.1 | 7.8 | 0.00 | 0.42 | 0.42 | 91 | 1013.5 |
| 20260510010231 | 76 | 71 | 4.3 | 7.0 | 0.00 | 0.42 | 0.42 | 91 | 1013.6 |
| 20260510005715 | 76 | 70 | 5.2 | 7.0 | 0.00 | 0.42 | 0.42 | 91 | 1013.7 |
| 20260510005220 | 76 | 72 | 4.3 | 5.2 | 0.00 | 0.42 | 0.42 | 92 | 1013.8 |
| 20260510004724 | 76 | 66 | 3.5 | 5.2 | 0.00 | 0.42 | 0.42 | 92 | 1013.9 |
| 20260510004229 | 76 | 74 | 3.5 | 4.3 | 0.00 | 0.42 | 0.42 | 92 | 1013.8 |
| 20260510003714 | 76 | 56 | 3.5 | 4.3 | 0.00 | 0.42 | 0.42 | 92 | 1013.7 |
| 20260510003219 | 76 | 55 | 3.5 | 6.1 | 0.00 | 0.42 | 0.42 | 92 | 1013.7 |
| 20260510002712 | 76 | 54 | 4.3 | 6.1 | 0.00 | 0.42 | 0.42 | 92 | 1013.5 |
| 20260510002217 | 76 | 58 | 4.3 | 5.2 | 0.00 | 0.42 | 0.42 | 91 | 1013.5 |
| 20260510001742 | 76 | 47 | 3.5 | 5.2 | 0.00 | 0.42 | 0.42 | 91 | 1013.5 |
| 20260510001226 | 76 | 57 | 4.3 | 6.1 | 0.00 | 0.42 | 0.42 | 91 | 1013.3 |
| 20260510000752 | 76 | 36 | 4.3 | 7.0 | 0.00 | 0.42 | 0.42 | 91 | 1013.1 |
| 20260510000215 | 76 | 45 | 5.2 | 7.0 | 0.00 | 0.42 | 0.42 | 91 | 1013.1 |
| 20260509235724 | 76 | 25 | 5.2 | 7.0 | 0.00 | 0.42 | 0.42 | 91 | 1013.2 |
| 20260509235229 | 76 | 30 | 3.5 | 4.3 | 0.00 | 0.42 | 0.42 | 91 | 1013.2 |
| 20260509234714 | 76 | 12 | 3.5 | 4.3 | 0.00 | 0.42 | 0.42 | 90 | 1013.2 |
| 20260509234229 | 76 | 13 | 3.5 | 4.3 | 0.00 | 0.42 | 0.42 | 90 | 1013.2 |
| 20260509233713 | 76 | 30 | 2.6 | 3.5 | 0.00 | 0.42 | 0.42 | 90 | 1013.1 |
| 20260509233218 | 76 | 38 | 2.6 | 5.2 | 0.00 | 0.42 | 0.42 | 90 | 1013.0 |
| 20260509232723 | 77 | 30 | 3.5 | 5.2 | 0.00 | 0.42 | 0.42 | 90 | 1013.0 |
| 20260509232226 | 77 | 37 | 4.3 | 6.1 | 0.00 | 0.42 | 0.42 | 90 | 1013.0 |
| 20260509231731 | 77 | 359 | 2.6 | 6.1 | 0.00 | 0.42 | 0.42 | 89 | 1013.1 |
| 20260509231216 | 77 | 8 | 3.5 | 6.1 | 0.00 | 0.42 | 0.42 | 90 | 1013.1 |
| 20260509230718 | 77 | 345 | 4.3 | 5.2 | 0.00 | 0.42 | 0.42 | 89 | 1013.0 |
| 20260509230240 | 77 | 324 | 3.5 | 7.0 | 0.00 | 0.42 | 0.42 | 89 | 1013.1 |
| 20260509225743 | 77 | 343 | 3.5 | 7.0 | 0.00 | 0.82 | 0.42 | 89 | 1012.9 |
| 20260509225230 | 77 | 338 | 4.3 | 6.1 | 0.00 | 0.82 | 0.42 | 90 | 1012.8 |
| 20260509224715 | 77 | 357 | 4.3 | 6.1 | 0.00 | 0.82 | 0.42 | 89 | 1012.6 |
| 20260509224220 | 77 | 337 | 3.5 | 7.0 | 0.00 | 0.82 | 0.42 | 89 | 1012.6 |
| 20260509223724 | 77 | 343 | 4.3 | 7.0 | 0.00 | 0.82 | 0.42 | 89 | 1012.6 |
| 20260509223228 | 77 | 336 | 4.3 | 6.1 | 0.00 | 0.82 | 0.42 | 89 | 1012.6 |
| 20260509222713 | 77 | 338 | 4.3 | 6.1 | 0.00 | 0.82 | 0.42 | 89 | 1012.6 |
| 20260509222237 | 77 | 333 | 4.3 | 7.0 | 0.00 | 0.82 | 0.42 | 89 | 1012.6 |
| 20260509221721 | 77 | 333 | 5.2 | 7.0 | 0.00 | 0.82 | 0.42 | 89 | 1012.5 |
| 20260509221225 | 77 | 329 | 5.2 | 7.0 | 0.00 | 0.82 | 0.42 | 90 | 1012.5 |
| 20260509220717 | 77 | 326 | 4.3 | 7.0 | 0.00 | 0.82 | 0.42 | 91 | 1012.5 |
| 20260509220221 | 77 | 328 | 4.3 | 6.1 | 0.00 | 0.82 | 0.42 | 91 | 1012.5 |
| 20260509215726 | 76 | 352 | 3.5 | 7.0 | 0.00 | 1.01 | 0.42 | 91 | 1012.6 |
| 20260509215235 | 76 | 336 | 3.5 | 7.0 | 0.00 | 1.01 | 0.42 | 92 | 1012.5 |
| 20260509214719 | 76 | 353 | 3.5 | 7.8 | 0.00 | 1.01 | 0.42 | 92 | 1012.5 |
| 20260509214243 | 76 | 13 | 4.3 | 7.8 | 0.00 | 1.01 | 0.42 | 93 | 1012.5 |
| 20260509213727 | 76 | 25 | 6.1 | 7.8 | 0.00 | 1.01 | 0.42 | 93 | 1012.4 |
| 20260509213231 | 76 | 16 | 5.2 | 7.0 | 0.00 | 1.01 | 0.42 | 93 | 1012.4 |
| 20260509212718 | 76 | 17 | 3.5 | 7.0 | 0.00 | 1.01 | 0.42 | 93 | 1012.6 |
| 20260509212238 | 76 | 9 | 4.3 | 9.6 | 0.00 | 1.01 | 0.42 | 93 | 1012.6 |
| 20260509211722 | 76 | 321 | 6.1 | 9.6 | 0.00 | 1.01 | 0.42 | 93 | 1012.5 |
| 20260509211226 | 76 | 321 | 6.1 | 11.3 | 0.00 | 1.01 | 0.42 | 93 | 1012.5 |
| 20260509210730 | 75 | 332 | 7.8 | 11.3 | 0.00 | 1.01 | 0.42 | 93 | 1012.5 |
| 20260509210215 | 76 | 11 | 7.0 | 11.3 | 0.00 | 1.01 | 0.42 | 93 | 1012.6 |
| 20260509205739 | 76 | 338 | 7.8 | 12.2 | 0.00 | 1.01 | 0.42 | 93 | 1012.6 |
| 20260509205242 | 76 | 5 | 7.8 | 13.9 | 0.00 | 1.01 | 0.42 | 93 | 1012.4 |
| 20260509204745 | 76 | 359 | 7.0 | 10.4 | 0.00 | 1.01 | 0.42 | 93 | 1012.4 |
| 20260509204228 | 76 | 338 | 7.8 | 11.3 | 0.00 | 1.01 | 0.42 | 93 | 1012.4 |
| 20260509203713 | 76 | 352 | 8.7 | 11.3 | 0.00 | 1.01 | 0.42 | 92 | 1012.2 |
| 20260509203218 | 76 | 327 | 7.0 | 7.8 | 0.00 | 1.01 | 0.42 | 93 | 1012.2 |
| 20260509202722 | 76 | 330 | 6.1 | 7.8 | 0.00 | 1.01 | 0.42 | 94 | 1012.3 |
| 20260509202226 | 75 | 340 | 3.5 | 4.3 | 0.00 | 1.01 | 0.42 | 93 | 1012.1 |
| 20260509201728 | 75 | 349 | 2.6 | 3.5 | 0.01 | 1.01 | 0.42 | 94 | 1012.1 |
| 20260509201231 | 75 | 71 | 1.7 | 1.7 | 0.09 | 1.01 | 0.42 | 93 | 1012.0 |
| 20260509200726 | 75 | 54 | 0.9 | 3.5 | 0.41 | 1.01 | 0.42 | 93 | 1012.0 |
| 20260509200230 | 74 | 21 | 1.7 | 4.3 | 0.42 | 1.01 | 0.42 | 93 | 1012.0 |
| 20260509195715 | 74 | 350 | 1.7 | 6.1 | 0.42 | 1.01 | 0.42 | 93 | 1012.0 |
| 20260509195219 | 74 | 330 | 3.5 | 6.1 | 0.42 | 1.01 | 0.42 | 93 | 1011.9 |
| 20260509194723 | 74 | 9 | 4.3 | 6.1 | 0.42 | 1.01 | 0.42 | 93 | 1012.0 |
| 20260509194228 | 74 | 25 | 3.5 | 7.0 | 0.42 | 1.01 | 0.42 | 92 | 1012.2 |
| 20260509193715 | 74 | 49 | 3.5 | 7.0 | 0.42 | 1.01 | 0.42 | 92 | 1012.3 |
| 20260509193220 | 74 | 30 | 2.6 | 8.7 | 0.42 | 1.01 | 0.42 | 92 | 1012.5 |
| 20260509192717 | 74 | 40 | 5.2 | 8.7 | 0.42 | 1.01 | 0.42 | 92 | 1012.4 |
| 20260509192222 | 74 | 31 | 2.6 | 12.2 | 0.41 | 1.00 | 0.41 | 92 | 1012.3 |
| 20260509191727 | 74 | 323 | 4.3 | 21.7 | 0.41 | 1.00 | 0.41 | 90 | 1012.4 |
| 20260509191231 | 77 | 246 | 16.5 | 21.7 | 0.29 | 0.88 | 0.32 | 86 | 1012.9 |
| 20260509190727 | 83 | 279 | 11.3 | 15.6 | 0.01 | 0.60 | 0.01 | 80 | 1012.6 |
| 20260509190231 | 83 | 1 | 4.3 | 5.2 | 0.00 | 0.59 | 0.00 | 77 | 1011.7 |
| 20260509185730 | 83 | 356 | 2.6 | 3.5 | 0.00 | 0.59 | 0.00 | 77 | 1011.7 |
| 20260509185214 | 83 | 10 | 2.6 | 4.3 | 0.00 | 0.59 | 0.00 | 78 | 1011.9 |
| 20260509184718 | 83 | 18 | 3.5 | 4.3 | 0.00 | 0.59 | 0.00 | 76 | 1011.9 |
| 20260509184226 | 83 | 36 | 3.5 | 4.3 | 0.00 | 0.59 | 0.00 | 75 | 1011.9 |
| 20260509183730 | 83 | 33 | 3.5 | 5.2 | 0.00 | 0.59 | 0.00 | 77 | 1012.1 |
| 20260509183215 | 83 | 31 | 3.5 | 5.2 | 0.00 | 0.59 | 0.00 | 77 | 1012.1 |
| 20260509182719 | 83 | 18 | 4.3 | 6.1 | 0.00 | 0.59 | 0.00 | 77 | 1012.2 |
| 20260509182240 | 83 | 15 | 5.2 | 6.1 | 0.00 | 0.59 | 0.00 | 78 | 1012.3 |
| 20260509181721 | 83 | 15 | 4.3 | 6.1 | 0.00 | 0.59 | 0.00 | 78 | 1012.4 |
| 20260509181223 | 83 | 7 | 4.3 | 7.0 | 0.00 | 0.59 | 0.00 | 78 | 1012.5 |
| 20260509180724 | 82 | 14 | 5.2 | 7.0 | 0.00 | 0.59 | 0.00 | 78 | 1012.6 |
| 20260509180247 | 82 | 20 | 5.2 | 7.0 | 0.00 | 0.59 | 0.00 | 78 | 1012.6 |
| 20260509175729 | 82 | 24 | 5.2 | 7.0 | 0.00 | 0.59 | 0.00 | 80 | 1012.7 |
| 20260509175230 | 82 | 347 | 5.2 | 7.8 | 0.00 | 0.59 | 0.00 | 80 | 1012.8 |
| 20260509174712 | 82 | 360 | 6.1 | 7.8 | 0.00 | 0.59 | 0.00 | 81 | 1012.8 |
| 20260509174217 | 82 | 6 | 6.1 | 7.8 | 0.00 | 0.59 | 0.00 | 80 | 1012.8 |
| 20260509173719 | 82 | 7 | 6.1 | 7.0 | 0.00 | 0.59 | 0.00 | 80 | 1012.8 |
| 20260509173222 | 82 | 352 | 4.3 | 7.0 | 0.00 | 0.59 | 0.00 | 80 | 1012.8 |
| 20260509172731 | 82 | 4 | 5.2 | 7.0 | 0.00 | 0.59 | 0.00 | 80 | 1012.8 |
| 20260509172214 | 82 | 13 | 4.3 | 6.1 | 0.00 | 0.59 | 0.00 | 80 | 1012.9 |
| 20260509171729 | 82 | 12 | 5.2 | 8.7 | 0.00 | 0.59 | 0.00 | 79 | 1012.9 |